#timestamp,LO_Frequency,Hit,StdDev 
1623916815.2,286047001.6,N
1623916835.1,286047001.8,N
1623916836.0,286047001.8,N
1623916855.8,286047001.6,N
1623916875.6,286047002.6,N
1623916895.5,286047002.2,N
1623916915.3,286047002.1,N
1623916935.2,286047001.5,N
1623916955.9,286047001.9,N
1623916975.7,286047001.9,N
1623916995.6,286047002.3,N
1623917015.4,286047001.9,N
1623917035.2,286047001.6,N
1623917055.1,286047002.1,N
1623917056.0,286047002.1,N
1623917075.8,286047004.1,N
1623917095.7,286047003.1,N
1623917115.5,286047003.8,N
1623917135.3,286047003.5,N
1623917155.2,286047005.8,Y
1623917175.0,286047002.2,P
1623917175.9,286047002.2,P
1623917195.8,286047001.6,P
1623917215.6,286047002.3,Y
1623917235.4,286046998.1,P
1623917255.3,286046998.2,N
1623917275.1,286047002.8,N
1623917295.9,286047002.3,N
1623917315.7,286047002.1,N
1623917335.5,286047002.6,N
1623917355.4,286047000.0,N
1623917375.2,286047000.3,N
1623917395.0,286047000.3,N
1623917395.9,286047000.3,N
1623917415.8,286047000.2,N
1623917435.6,286046999.7,N
1623917455.5,286047000.5,N
1623917475.3,286047002.4,N
1623917495.1,286047002.6,N
1623917515.9,286047002.0,N
1623917535.7,286046999.9,N
1623917555.6,286047000.2,N
1623917575.4,286047002.2,N
1623917595.2,286047000.2,N
1623917615.1,286047000.7,N
1623917616.0,286047000.7,N
1623917635.8,286047000.5,N
1623917655.6,286047002.5,N
1623917675.5,286047002.6,N
1623917695.3,286047002.7,N
1623917715.2,286047002.1,N
1623917735.9,286047002.0,N
1623917755.7,286047001.4,N
1623917775.6,286047002.3,N
1623917795.4,286047002.2,N
1623917815.3,286047002.4,N
1623917835.1,286047003.8,Y
1623917836.0,286047003.8,P
1623917855.8,286047002.2,N
1623917875.7,286047001.6,N
1623917895.5,286047002.8,N
1623917915.3,286046998.2,N
1623917935.2,286046999.0,N
1623917955.0,286046998.3,N
1623917955.9,286046998.3,N
1623917975.8,286047002.4,N
1623917995.6,286047000.4,N
1623918015.4,286046999.9,N
1623918035.3,286046999.9,N
1623918055.1,286046998.7,N
1623918075.8,286046997.0,N
1623918095.7,286046996.9,N
1623918115.5,286046996.7,N
1623918135.4,286046997.2,N
1623918155.2,286046997.0,N
1623918175.0,286046999.0,N
1623918175.9,286047011.9,Y
1623918195.8,286046999.8,P
1623918215.6,286047000.2,N
1623918235.4,286047001.6,P
1623918255.3,286047002.2,N
1623918275.1,286047001.1,N
1623918295.9,286046999.2,N
1623918315.7,286046998.4,N
1623918335.5,286047000.6,N
1623918355.4,286047001.7,N
1623918375.2,286047001.6,N
1623918395.0,286047002.2,N
1623918395.9,286047002.2,N
1623918415.8,286047002.4,N
1623918435.6,286047001.7,N
1623918455.5,286047001.4,N
1623918475.3,286047002.6,N
1623918495.1,286047000.0,N
1623918515.9,286047002.0,N
1623918535.7,286047002.6,N
1623918555.5,286047002.8,N
1623918575.4,286047001.5,N
1623918595.2,286047001.4,N
1623918615.1,286047001.5,N
1623918616.0,286047001.5,N
1623918635.8,286047001.5,N
1623918655.6,286047001.3,N
1623918675.5,286047001.5,N
1623918695.3,286047003.8,Y
1623918715.1,286047002.4,P
1623918735.9,286047000.9,N
1623918755.7,286047000.0,N
1623918775.6,286047000.2,N
1623918795.4,286047000.3,N
1623918815.2,286047001.0,N
1623918835.1,286047002.7,Y
1623918836.0,286047002.7,P
1623918855.8,286047001.0,N
1623918875.7,286047002.5,N
1623918895.5,286047002.4,N
1623918915.3,286046999.8,N
1623918935.2,286047002.5,N
1623918955.9,286047002.5,N
1623918975.7,286047002.8,N
1623918995.6,286047001.6,N
1623919015.4,286047004.3,Y
1623919035.3,286046999.4,P
1623919055.1,286046995.0,P
1623919056.0,286046995.0,N
1623919075.8,286046993.7,N
1623919095.7,286046997.7,N
1623919115.5,286046997.4,N
1623919135.3,286046998.0,N
1623919155.2,286046997.8,N
1623919175.0,286046999.2,N
1623919175.9,286046999.2,N
1623919195.8,286046998.9,N
1623919215.6,286046998.9,N
1623919235.4,286046999.4,N
1623919255.3,286046999.4,N
1623919275.1,286046998.5,N
1623919295.8,286047001.0,N
1623919315.7,286047001.2,N
1623919335.5,286047001.2,N
1623919355.4,286046998.2,N
1623919375.2,286046998.2,N
1623919395.0,286046998.6,N
1623919395.9,286046998.6,N
1623919415.8,286046998.7,N
1623919435.6,286046999.3,N
1623919455.4,286046999.6,N
1623919475.3,286046998.9,N
1623919495.1,286046999.1,N
1623919515.9,286046998.8,N
1623919535.7,286046999.4,N
1623919555.5,286046998.6,N
1623919575.4,286046999.2,N
1623919595.2,286046998.2,N
1623919615.0,286046999.3,N
1623919615.9,286046999.3,N
1623919635.8,286046997.4,N
1623919655.6,286046999.5,N
1623919675.5,286046996.5,Y
1623919695.3,286046999.5,P
1623919715.1,286046999.3,P
1623919735.9,286046998.2,P
1623919755.7,286046996.6,Y
1623919775.6,286046998.2,P
1623919795.4,286046998.3,P
1623919815.2,286046998.6,P
1623919835.1,286046999.9,N
1623919836.0,286046999.9,N
1623919855.8,286047002.0,N
1623919875.7,286047002.6,N
1623919895.5,286047001.9,N
1623919915.3,286047002.0,N
1623919935.2,286047001.5,N
1623919955.0,286047000.0,N
1623919955.9,286047000.0,N
1623919975.8,286047000.2,N
1623919995.6,286047000.1,N
1623920015.4,286046998.5,N
1623920035.3,286047001.0,N
1623920055.1,286047001.0,N
1623920075.8,286047000.5,N
1623920095.7,286047001.1,N
1623920115.5,286046998.6,N
1623920135.4,286046998.3,N
1623920155.2,286046998.3,N
1623920175.0,286046998.1,N
1623920175.9,286046998.1,N
1623920195.8,286046998.7,N
1623920215.6,286047001.2,N
1623920235.5,286046998.5,N
1623920255.3,286046998.6,N
1623920275.1,286047000.8,N
1623920295.9,286046998.8,N
1623920315.7,286046999.3,N
1623920335.6,286046999.0,N
1623920355.4,286046998.3,N
1623920375.2,286046998.6,N
1623920395.1,286046998.6,N
1623920396.0,286046998.6,N
